This is the latest recevied weather packets stored in our database for station/object KC0CAU. If no packets are shown the sender has not sent any weather packets the latest 1 day(s).
| Time | Temp. | Humidity | Pressure | Rain* | Wind** | Luminosity | Snow |
|---|---|---|---|---|---|---|---|
| 1777992336 | 3.33° C | 60% | 1017.1 hPa | 0 mm | 4.02 m/s, 355° | - | - |
| 1777991434 | 3.89° C | 60% | 1016.8 hPa | 0 mm | 3.58 m/s, 317° | - | - |
| 1777990529 | 3.89° C | 61% | 1016.5 hPa | 0 mm | 3.13 m/s, 13° | - | - |
| 1777989627 | 3.33° C | 61% | 1016.3 hPa | 0 mm | 4.02 m/s, 360° | - | - |
| 1777988726 | 3.33° C | 62% | 1016.2 hPa | 0 mm | 3.58 m/s, 336° | - | - |
| 1777987832 | 3.33° C | 65% | 1016.2 hPa | 0 mm | 2.68 m/s, 360° | - | - |
| 1777986919 | 2.78° C | 67% | 1015.8 hPa | 0 mm | 3.58 m/s, 331° | - | - |
| 1777986017 | 2.78° C | 69% | 1015.8 hPa | 0 mm | 2.68 m/s, 315° | - | - |
| 1777985117 | 2.22° C | 70% | 1015.7 hPa | 0 mm | 1.79 m/s, 331° | - | - |
| 1777984227 | 2.22° C | 70% | 1015.5 hPa | 0 mm | 1.79 m/s, 319° | - | - |
| 1777983313 | 2.22° C | 70% | 1015.3 hPa | 0 mm | 3.13 m/s, 355° | - | - |
| 1777982419 | 2.22° C | 70% | 1015.3 hPa | 0 mm | 1.79 m/s, 294° | - | - |
| 1777981511 | 1.67° C | 70% | 1015.2 hPa | 0 mm | 0.89 m/s, 322° | - | - |
| 1777980609 | 1.67° C | 70% | 1015.1 hPa | 0 mm | 1.34 m/s, 327° | - | - |
| 1777979716 | 1.67° C | 71% | 1014.9 hPa | 0 mm | 1.79 m/s, 300° | - | - |
| 1777978803 | 1.67° C | 72% | 1015 hPa | 0 mm | 1.34 m/s, 311° | - | - |
| 1777977903 | 1.67° C | 71% | 1014.8 hPa | 0 mm | 1.34 m/s, 335° | - | - |
| 1777977001 | 1.67° C | 71% | 1014.7 hPa | 0 mm | 1.79 m/s, 341° | - | - |
| 1777976101 | 1.67° C | 71% | 1014.8 hPa | 0 mm | 1.34 m/s, 326° | - | - |
| 1777975266 | 1.11° C | 70% | 1014.9 hPa | 0 mm | 1.79 m/s, 314° | - | - |
| 1777974357 | 1.11° C | 70% | 1014.7 hPa | 0 mm | 1.34 m/s, 321° | - | - |
| 1777973463 | 1.67° C | 68% | 1014.7 hPa | 0 mm | 2.24 m/s, 321° | - | - |
* Rain latest hour (hover to see other rain measurements)
** Current wind speed in m/s (hover to see current wind gust speed)